sat.trackr.live / text

‹ back to catalog

STARLINK-31159

NORAD 58740 · 2024-005N

PAYLOAD ACTIVE UNKNOWN

§ Identity

Operator
Country
US
Launch date
2024-01-07
Launch site
AFETR
Launch vehicle
Mass (kg)
RCS (m²)

Purposes: comms

External: N2YO · Heavens-Above · Gunter

§ Orbital elements

Epoch: 2026-05-25T00:47:28.755744Z

Period
94.27 min
Inclination
43.0007°
Eccentricity
0.0001412
Mean motion
15.27577480 rev/d
Perigee alt
482.1 km
Apogee alt
484.0 km
Semi-major
6,861.2 km
B*
3.6865e-5
RAAN
148.2356°
Arg perigee
277.4383°
Mean anomaly
82.6308°
Rev number
13,221

§ Raw data

STARLINK-311591 58740U 24005N   26145.03297171  .00000752  00000+0  36865-4 0  99982 58740  43.0007 148.2356 0001412 277.4383  82.6308 15.27577480132213

JSON: /api/v1/satellites/58740 · /tle

For live sub-satellite position, see the globe view (requires WebGL).

§ Visibility from observer

Set your observer location to see the next 7 days of passes ≥ 10°. The values pass through the URL so the page stays shareable.

No JS? Fill the form by hand. The geolocation button needs JavaScript.